Time,TemperatureF,DewpointF,PressureIn,WindDirection,WindDirectionDegrees,WindSpeedMPH,WindSpeedGustMPH,Humidity,HourlyPrecipIn,Conditions,Clouds,dailyrainin,SoftwareType,DateUTC
2013-03-04 00:00:00,24.9,17.5,30.17,NW,325,2.0,7.0,73,0.00,,,0.00,Wunderground v.1.15,2013-03-04 05:00:00,
2013-03-04 00:01:00,24.9,17.5,30.17,NW,312,1.0,2.0,73,0.00,,,0.00,Wunderground v.1.15,2013-03-04 05:01:00,
2013-03-04 00:07:00,24.9,17.5,30.17,West,274,3.0,3.0,73,0.00,,,0.00,Wunderground v.1.15,2013-03-04 05:07:00,
2013-03-04 00:12:00,24.9,17.5,30.17,NNW,330,1.0,2.0,73,0.00,,,0.00,Wunderground v.1.15,2013-03-04 05:12:00,
2013-03-04 00:17:00,24.9,17.1,30.17,WNW,288,0.0,3.0,72,0.00,,,0.00,Wunderground v.1.15,2013-03-04 05:17:00,
2013-03-04 00:22:00,24.9,17.1,30.17,West,281,1.0,2.0,72,0.00,,,0.00,Wunderground v.1.15,2013-03-04 05:22:00,
2013-03-04 00:27:00,24.9,17.1,30.17,WSW,254,1.0,4.0,72,0.00,,,0.00,Wunderground v.1.15,2013-03-04 05:27:00,
2013-03-04 00:33:00,24.9,17.1,30.17,NNE,33,0.0,2.0,72,0.00,,,0.00,Wunderground v.1.15,2013-03-04 05:33:00,
2013-03-04 00:38:00,24.9,17.1,30.18,WNW,289,0.0,3.0,72,0.00,,,0.00,Wunderground v.1.15,2013-03-04 05:38:00,
2013-03-04 00:43:00,24.8,17.1,30.18,West,280,0.0,1.0,72,0.00,,,0.00,Wunderground v.1.15,2013-03-04 05:43:00,
2013-03-04 00:48:00,24.7,17.0,30.18,WNW,290,1.0,1.0,72,0.00,,,0.00,Wunderground v.1.15,2013-03-04 05:48:00,
2013-03-04 00:53:00,24.7,17.3,30.18,SW,234,0.0,2.0,73,0.00,,,0.00,Wunderground v.1.15,2013-03-04 05:53:00,
2013-03-04 00:59:00,24.7,17.0,30.18,NE,35,6.0,7.0,72,0.00,,,0.00,Wunderground v.1.15,2013-03-04 05:59:00,
2013-03-04 01:04:00,24.7,17.0,30.18,WNW,300,0.0,2.0,72,0.00,,,0.00,Wunderground v.1.15,2013-03-04 06:04:00,
2013-03-04 01:09:00,24.7,17.0,30.19,NNE,17,2.0,3.0,72,0.00,,,0.00,Wunderground v.1.15,2013-03-04 06:09:00,
2013-03-04 01:14:00,24.7,17.0,30.19,WNW,293,1.0,2.0,72,0.00,,,0.00,Wunderground v.1.15,2013-03-04 06:14:00,
2013-03-04 01:19:00,24.7,17.0,30.19,WNW,288,1.0,2.0,72,0.00,,,0.00,Wunderground v.1.15,2013-03-04 06:19:00,
2013-03-04 01:24:00,24.7,17.3,30.19,West,260,0.0,1.0,73,0.00,,,0.00,Wunderground v.1.15,2013-03-04 06:24:00,
2013-03-04 01:30:00,24.6,17.2,30.19,West,260,2.0,2.0,73,0.00,,,0.00,Wunderground v.1.15,2013-03-04 06:30:00,
2013-03-04 01:35:00,24.6,17.2,30.20,West,262,0.0,2.0,73,0.00,,,0.00,Wunderground v.1.15,2013-03-04 06:35:00,
2013-03-04 01:40:00,24.6,17.2,30.20,SW,226,1.0,1.0,73,0.00,,,0.00,Wunderground v.1.15,2013-03-04 06:40:00,
2013-03-04 01:45:00,24.5,17.1,30.20,SW,221,0.0,1.0,73,0.00,,,0.00,Wunderground v.1.15,2013-03-04 06:45:00,
2013-03-04 01:51:00,24.5,17.4,30.20,NW,311,0.0,1.0,74,0.00,,,0.00,Wunderground v.1.15,2013-03-04 06:51:00,
2013-03-04 01:56:00,24.5,17.1,30.20,NNW,329,0.0,2.0,73,0.00,,,0.00,Wunderground v.1.15,2013-03-04 06:56:00,
2013-03-04 02:01:00,24.5,17.4,30.20,SW,230,1.0,1.0,74,0.00,,,0.00,Wunderground v.1.15,2013-03-04 07:01:00,
2013-03-04 02:06:00,24.5,17.1,30.20,WNW,303,0.0,3.0,73,0.00,,,0.00,Wunderground v.1.15,2013-03-04 07:06:00,
2013-03-04 02:11:00,24.6,17.2,30.20,North,351,0.0,2.0,73,0.00,,,0.00,Wunderground v.1.15,2013-03-04 07:11:00,
2013-03-04 02:16:00,24.5,17.4,30.20,WNW,288,0.0,2.0,74,0.00,,,0.00,Wunderground v.1.15,2013-03-04 07:16:00,
2013-03-04 02:21:00,24.4,17.3,30.20,NNW,328,1.0,1.0,74,0.00,,,0.00,Wunderground v.1.15,2013-03-04 07:21:00,
2013-03-04 02:26:00,24.4,17.3,30.20,SW,234,0.0,3.0,74,0.00,,,0.00,Wunderground v.1.15,2013-03-04 07:26:00,
2013-03-04 02:31:00,24.4,17.6,30.21,North,360,0.0,0.0,75,0.00,,,0.00,Wunderground v.1.15,2013-03-04 07:31:00,
2013-03-04 02:36:00,24.3,17.5,30.21,SW,221,0.0,3.0,75,0.00,,,0.00,Wunderground v.1.15,2013-03-04 07:36:00,
2013-03-04 02:41:00,24.3,17.5,30.21,West,264,3.0,5.0,75,0.00,,,0.00,Wunderground v.1.15,2013-03-04 07:41:00,
2013-03-04 02:47:00,24.4,17.6,30.20,North,351,0.0,6.0,75,0.00,,,0.00,Wunderground v.1.15,2013-03-04 07:47:00,
2013-03-04 02:52:00,24.4,17.6,30.20,ENE,74,0.0,1.0,75,0.00,,,0.00,Wunderground v.1.15,2013-03-04 07:52:00,
2013-03-04 02:57:00,24.3,17.5,30.21,NE,43,1.0,4.0,75,0.00,,,0.00,Wunderground v.1.15,2013-03-04 07:57:00,
2013-03-04 03:02:00,24.4,17.9,30.20,WNW,288,0.0,1.0,76,0.00,,,0.00,Wunderground v.1.15,2013-03-04 08:02:00,
2013-03-04 03:07:00,24.3,17.8,30.21,NE,38,0.0,2.0,76,0.00,,,0.00,Wunderground v.1.15,2013-03-04 08:07:00,
2013-03-04 03:12:00,24.3,17.8,30.21,NE,36,0.0,1.0,76,0.00,,,0.00,Wunderground v.1.15,2013-03-04 08:12:00,
2013-03-04 03:17:00,24.3,17.8,30.21,East,88,0.0,2.0,76,0.00,,,0.00,Wunderground v.1.15,2013-03-04 08:17:00,
2013-03-04 03:22:00,24.3,17.8,30.21,SW,225,1.0,1.0,76,0.00,,,0.00,Wunderground v.1.15,2013-03-04 08:22:00,
2013-03-04 03:27:00,24.5,18.0,30.21,North,360,0.0,3.0,76,0.00,,,0.00,Wunderground v.1.15,2013-03-04 08:27:00,
2013-03-04 03:32:00,24.5,18.3,30.22,WSW,245,0.0,1.0,77,0.00,,,0.00,Wunderground v.1.15,2013-03-04 08:32:00,
2013-03-04 03:37:00,24.5,18.3,30.22,NE,38,0.0,3.0,77,0.00,,,0.00,Wunderground v.1.15,2013-03-04 08:37:00,
2013-03-04 03:42:00,24.6,18.1,30.22,NW,315,0.0,4.0,76,0.00,,,0.00,Wunderground v.1.15,2013-03-04 08:42:00,
2013-03-04 03:47:00,24.6,18.1,30.22,NE,36,0.0,4.0,76,0.00,,,0.00,Wunderground v.1.15,2013-03-04 08:47:00,
2013-03-04 03:52:00,24.7,18.2,30.22,WNW,297,0.0,1.0,76,0.00,,,0.00,Wunderground v.1.15,2013-03-04 08:52:00,
2013-03-04 03:57:00,24.7,18.2,30.22,NW,323,0.0,5.0,76,0.00,,,0.00,Wunderground v.1.15,2013-03-04 08:57:00,
2013-03-04 04:02:00,24.7,18.2,30.22,SSW,194,1.0,5.0,76,0.00,,,0.00,Wunderground v.1.15,2013-03-04 09:02:00,
2013-03-04 04:07:00,24.7,18.5,30.22,South,179,0.0,5.0,77,0.00,,,0.00,Wunderground v.1.15,2013-03-04 09:07:00,
2013-03-04 04:12:00,24.7,18.2,30.23,NNE,30,0.0,1.0,76,0.00,,,0.00,Wunderground v.1.15,2013-03-04 09:12:00,
2013-03-04 04:17:00,24.7,18.2,30.23,NE,44,1.0,2.0,76,0.00,,,0.00,Wunderground v.1.15,2013-03-04 09:17:00,
2013-03-04 04:22:00,24.7,18.2,30.22,WNW,294,0.0,1.0,76,0.00,,,0.00,Wunderground v.1.15,2013-03-04 09:22:00,
2013-03-04 04:27:00,24.6,18.1,30.22,NW,319,1.0,2.0,76,0.00,,,0.00,Wunderground v.1.15,2013-03-04 09:27:00,
2013-03-04 04:32:00,24.6,18.1,30.22,NE,50,0.0,1.0,76,0.00,,,0.00,Wunderground v.1.15,2013-03-04 09:32:00,
2013-03-04 04:37:00,24.6,18.1,30.23,NW,313,0.0,5.0,76,0.00,,,0.00,Wunderground v.1.15,2013-03-04 09:37:00,
2013-03-04 04:42:00,24.7,18.2,30.23,North,349,0.0,1.0,76,0.00,,,0.00,Wunderground v.1.15,2013-03-04 09:42:00,
2013-03-04 04:47:00,24.7,18.5,30.23,NW,309,0.0,2.0,77,0.00,,,0.00,Wunderground v.1.15,2013-03-04 09:47:00,
2013-03-04 04:52:00,24.7,18.5,30.24,SSW,204,0.0,1.0,77,0.00,,,0.00,Wunderground v.1.15,2013-03-04 09:52:00,
2013-03-04 04:57:00,24.7,18.5,30.23,SW,223,0.0,4.0,77,0.00,,,0.00,Wunderground v.1.15,2013-03-04 09:57:00,
2013-03-04 05:02:00,24.8,18.6,30.24,NE,38,1.0,7.0,77,0.00,,,0.00,Wunderground v.1.15,2013-03-04 10:02:00,
2013-03-04 05:07:00,24.8,18.6,30.25,WNW,299,0.0,7.0,77,0.00,,,0.00,Wunderground v.1.15,2013-03-04 10:07:00,
2013-03-04 05:12:00,24.8,18.6,30.25,SSE,164,0.0,2.0,77,0.00,,,0.00,Wunderground v.1.15,2013-03-04 10:12:00,
2013-03-04 05:17:00,24.7,18.5,30.25,NE,42,0.0,2.0,77,0.00,,,0.00,Wunderground v.1.15,2013-03-04 10:17:00,
2013-03-04 05:22:00,24.7,18.5,30.25,North,360,0.0,2.0,77,0.00,,,0.00,Wunderground v.1.15,2013-03-04 10:22:00,
2013-03-04 05:28:00,24.7,18.5,30.25,ENE,76,2.0,2.0,77,0.00,,,0.00,Wunderground v.1.15,2013-03-04 10:28:00,
2013-03-04 05:33:00,24.7,18.5,30.26,North,360,0.0,2.0,77,0.00,,,0.00,Wunderground v.1.15,2013-03-04 10:33:00,
2013-03-04 05:38:00,24.6,18.4,30.25,NNE,28,0.0,3.0,77,0.00,,,0.00,Wunderground v.1.15,2013-03-04 10:38:00,
2013-03-04 05:43:00,24.6,18.4,30.25,NNW,329,0.0,1.0,77,0.00,,,0.00,Wunderground v.1.15,2013-03-04 10:43:00,
2013-03-04 05:48:00,24.6,18.4,30.25,NNE,22,0.0,3.0,77,0.00,,,0.00,Wunderground v.1.15,2013-03-04 10:48:00,
2013-03-04 05:53:00,24.6,18.7,30.26,WSW,238,0.0,2.0,78,0.00,,,0.00,Wunderground v.1.15,2013-03-04 10:53:00,
2013-03-04 05:58:00,24.6,18.7,30.26,WSW,252,1.0,2.0,78,0.00,,,0.00,Wunderground v.1.15,2013-03-04 10:58:00,
2013-03-04 06:03:00,24.5,18.3,30.26,NNW,329,0.0,1.0,77,0.00,,,0.00,Wunderground v.1.15,2013-03-04 11:03:00,
2013-03-04 06:08:00,24.5,18.3,30.26,NNE,14,0.0,7.0,77,0.00,,,0.00,Wunderground v.1.15,2013-03-04 11:08:00,
2013-03-04 06:13:00,24.5,18.6,30.27,WNW,286,0.0,4.0,78,0.00,,,0.00,Wunderground v.1.15,2013-03-04 11:13:00,
2013-03-04 06:18:00,24.4,18.5,30.27,NW,308,0.0,4.0,78,0.00,,,0.00,Wunderground v.1.15,2013-03-04 11:18:00,
2013-03-04 06:23:00,24.4,18.5,30.27,WSW,242,0.0,2.0,78,0.00,,,0.00,Wunderground v.1.15,2013-03-04 11:23:00,
2013-03-04 06:28:00,24.4,18.5,30.28,West,262,1.0,6.0,78,0.00,,,0.00,Wunderground v.1.15,2013-03-04 11:28:00,
2013-03-04 06:33:00,24.4,18.5,30.28,NNW,344,0.0,2.0,78,0.00,,,0.00,Wunderground v.1.15,2013-03-04 11:33:00,
2013-03-04 06:38:00,24.4,18.5,30.28,NNW,333,0.0,2.0,78,0.00,,,0.00,Wunderground v.1.15,2013-03-04 11:38:00,
2013-03-04 06:43:00,24.3,18.4,30.28,NNE,13,0.0,2.0,78,0.00,,,0.00,Wunderground v.1.15,2013-03-04 11:43:00,
2013-03-04 06:48:00,24.3,18.4,30.28,WNW,294,0.0,2.0,78,0.00,,,0.00,Wunderground v.1.15,2013-03-04 11:48:00,
2013-03-04 06:53:00,24.2,18.3,30.28,WNW,294,0.0,2.0,78,0.00,,,0.00,Wunderground v.1.15,2013-03-04 11:53:00,
2013-03-04 06:58:00,24.2,18.3,30.28,South,187,0.0,2.0,78,0.00,,,0.00,Wunderground v.1.15,2013-03-04 11:58:00,
2013-03-04 07:03:00,24.2,18.3,30.28,North,11,0.0,4.0,78,0.00,,,0.00,Wunderground v.1.15,2013-03-04 12:03:00,
2013-03-04 07:08:00,24.1,18.5,30.28,North,360,0.0,4.0,79,0.00,,,0.00,Wunderground v.1.15,2013-03-04 12:08:00,
2013-03-04 07:13:00,24.0,18.4,30.28,NW,325,1.0,1.0,79,0.00,,,0.00,Wunderground v.1.15,2013-03-04 12:13:00,
2013-03-04 07:18:00,24.0,18.4,30.28,North,5,0.0,2.0,79,0.00,,,0.00,Wunderground v.1.15,2013-03-04 12:18:00,
2013-03-04 07:23:00,24.0,18.4,30.28,NNE,13,0.0,1.0,79,0.00,,,0.00,Wunderground v.1.15,2013-03-04 12:23:00,
2013-03-04 07:28:00,23.9,18.3,30.28,SW,218,1.0,5.0,79,0.00,,,0.00,Wunderground v.1.15,2013-03-04 12:28:00,
2013-03-04 07:33:00,24.0,18.4,30.29,WNW,292,0.0,2.0,79,0.00,,,0.00,Wunderground v.1.15,2013-03-04 12:33:00,
2013-03-04 07:38:00,24.1,18.5,30.29,NNE,23,2.0,4.0,79,0.00,,,0.00,Wunderground v.1.15,2013-03-04 12:38:00,
2013-03-04 07:43:00,24.3,18.7,30.29,NNW,330,0.0,1.0,79,0.00,,,0.00,Wunderground v.1.15,2013-03-04 12:43:00,
2013-03-04 07:48:00,24.5,18.6,30.28,WSW,256,0.0,4.0,78,0.00,,,0.00,Wunderground v.1.15,2013-03-04 12:48:00,
2013-03-04 07:53:00,24.7,18.8,30.29,WNW,288,0.0,2.0,78,0.00,,,0.00,Wunderground v.1.15,2013-03-04 12:53:00,
2013-03-04 07:58:00,24.9,19.0,30.29,WNW,290,0.0,7.0,78,0.00,,,0.00,Wunderground v.1.15,2013-03-04 12:58:00,
2013-03-04 08:03:00,25.1,19.2,30.29,SE,145,3.0,4.0,78,0.00,,,0.00,Wunderground v.1.15,2013-03-04 13:03:00,
2013-03-04 08:08:00,25.3,19.1,30.29,NNW,327,0.0,4.0,77,0.00,,,0.00,Wunderground v.1.15,2013-03-04 13:08:00,
2013-03-04 08:13:00,25.5,19.3,30.29,WNW,288,1.0,3.0,77,0.00,,,0.00,Wunderground v.1.15,2013-03-04 13:13:00,
2013-03-04 08:18:00,25.8,19.3,30.29,NNW,333,2.0,3.0,76,0.00,,,0.00,Wunderground v.1.15,2013-03-04 13:18:00,
2013-03-04 08:23:00,26.0,19.5,30.29,NNW,338,4.0,7.0,76,0.00,,,0.00,Wunderground v.1.15,2013-03-04 13:23:00,
2013-03-04 08:28:00,26.3,19.5,30.29,NW,311,0.0,10.0,75,0.00,,,0.00,Wunderground v.1.15,2013-03-04 13:28:00,
2013-03-04 08:34:00,26.6,19.4,30.29,NNW,329,1.0,11.0,74,0.00,,,0.00,Wunderground v.1.15,2013-03-04 13:34:00,
2013-03-04 08:39:00,26.9,19.7,30.29,West,274,1.0,11.0,74,0.00,,,0.00,Wunderground v.1.15,2013-03-04 13:39:00,
2013-03-04 08:44:00,27.2,20.0,30.29,NW,309,3.0,4.0,74,0.00,,,0.00,Wunderground v.1.15,2013-03-04 13:44:00,
2013-03-04 08:49:00,27.5,20.0,30.29,North,9,0.0,14.0,73,0.00,,,0.00,Wunderground v.1.15,2013-03-04 13:49:00,
2013-03-04 08:54:00,27.8,19.9,30.29,NNW,331,0.0,7.0,72,0.00,,,0.00,Wunderground v.1.15,2013-03-04 13:54:00,
2013-03-04 08:59:00,28.0,20.1,30.30,NW,311,0.0,10.0,72,0.00,,,0.00,Wunderground v.1.15,2013-03-04 13:59:00,
2013-03-04 09:04:00,28.3,20.1,30.30,West,261,0.0,3.0,71,0.00,,,0.00,Wunderground v.1.15,2013-03-04 14:04:00,
2013-03-04 09:09:00,28.6,20.1,30.30,WSW,244,2.0,5.0,70,0.00,,,0.00,Wunderground v.1.15,2013-03-04 14:09:00,
2013-03-04 09:14:00,28.8,20.2,30.31,SSW,197,0.0,4.0,70,0.00,,,0.00,Wunderground v.1.15,2013-03-04 14:14:00,
2013-03-04 09:19:00,29.0,20.4,30.31,NW,315,0.0,5.0,70,0.00,,,0.00,Wunderground v.1.15,2013-03-04 14:19:00,
2013-03-04 09:24:00,29.3,20.4,30.31,SW,224,2.0,3.0,69,0.00,,,0.00,Wunderground v.1.15,2013-03-04 14:24:00,
2013-03-04 09:29:00,29.5,20.2,30.31,NNE,24,1.0,5.0,68,0.00,,,0.00,Wunderground v.1.15,2013-03-04 14:29:00,
2013-03-04 09:34:00,29.8,19.8,30.31,West,267,1.0,5.0,66,0.00,,,0.00,Wunderground v.1.15,2013-03-04 14:34:00,
2013-03-04 09:39:00,30.1,20.1,30.31,SW,223,0.0,5.0,66,0.00,,,0.00,Wunderground v.1.15,2013-03-04 14:39:00,
2013-03-04 09:44:00,30.6,20.2,30.31,WSW,239,2.0,3.0,65,0.00,,,0.00,Wunderground v.1.15,2013-03-04 14:44:00,
2013-03-04 09:49:00,30.9,20.5,30.31,ENE,75,2.0,3.0,65,0.00,,,0.00,Wunderground v.1.15,2013-03-04 14:49:00,
2013-03-04 09:54:00,31.2,20.4,30.31,East,82,0.0,5.0,64,0.00,,,0.00,Wunderground v.1.15,2013-03-04 14:54:00,
2013-03-04 09:59:00,31.7,20.5,30.31,North,5,5.0,6.0,63,0.00,,,0.00,Wunderground v.1.15,2013-03-04 14:59:00,
2013-03-04 10:04:00,31.9,20.0,30.31,North,351,0.0,4.0,61,0.00,,,0.00,Wunderground v.1.15,2013-03-04 15:04:00,
2013-03-04 10:09:00,32.3,20.7,30.31,NE,44,1.0,4.0,62,0.00,,,0.00,Wunderground v.1.15,2013-03-04 15:09:00,
2013-03-04 10:14:00,32.8,20.4,30.31,SSW,207,1.0,3.0,60,0.00,,,0.00,Wunderground v.1.15,2013-03-04 15:14:00,
2013-03-04 10:19:00,33.1,20.3,30.31,North,355,0.0,5.0,59,0.00,,,0.00,Wunderground v.1.15,2013-03-04 15:19:00,
2013-03-04 10:24:00,33.5,20.3,30.31,NW,311,0.0,4.0,58,0.00,,,0.00,Wunderground v.1.15,2013-03-04 15:24:00,
2013-03-04 10:29:00,33.7,20.1,30.31,SSW,213,2.0,4.0,57,0.00,,,0.00,Wunderground v.1.15,2013-03-04 15:29:00,
2013-03-04 10:34:00,33.9,19.8,30.31,West,261,0.0,3.0,56,0.00,,,0.00,Wunderground v.1.15,2013-03-04 15:34:00,
2013-03-04 10:39:00,34.2,19.7,30.31,NW,313,4.0,6.0,55,0.00,,,0.00,Wunderground v.1.15,2013-03-04 15:39:00,
2013-03-04 10:44:00,34.2,19.3,30.31,WNW,299,0.0,3.0,54,0.00,,,0.00,Wunderground v.1.15,2013-03-04 15:44:00,
2013-03-04 10:49:00,34.6,19.6,30.31,WNW,286,0.0,3.0,54,0.00,,,0.00,Wunderground v.1.15,2013-03-04 15:49:00,
2013-03-04 10:54:00,35.0,20.0,30.31,NNW,336,1.0,3.0,54,0.00,,,0.00,Wunderground v.1.15,2013-03-04 15:54:00,
2013-03-04 10:59:00,35.6,20.6,30.30,NNE,15,0.0,4.0,54,0.00,,,0.00,Wunderground v.1.15,2013-03-04 15:59:00,
2013-03-04 11:04:00,36.1,20.2,30.31,SSW,206,1.0,7.0,52,0.00,,,0.00,Wunderground v.1.15,2013-03-04 16:04:00,
2013-03-04 11:09:00,36.4,20.9,30.31,WNW,300,0.0,7.0,53,0.00,,,0.00,Wunderground v.1.15,2013-03-04 16:09:00,
2013-03-04 11:14:00,36.7,20.3,30.31,SSW,203,0.0,2.0,51,0.00,,,0.00,Wunderground v.1.15,2013-03-04 16:14:00,
2013-03-04 11:19:00,37.2,21.2,30.30,NNW,333,1.0,4.0,52,0.00,,,0.00,Wunderground v.1.15,2013-03-04 16:19:00,
2013-03-04 11:24:00,37.5,21.0,30.30,North,355,1.0,3.0,51,0.00,,,0.00,Wunderground v.1.15,2013-03-04 16:24:00,
2013-03-04 11:29:00,37.9,21.8,30.30,NE,38,1.0,3.0,52,0.00,,,0.00,Wunderground v.1.15,2013-03-04 16:29:00,
2013-03-04 11:34:00,38.6,21.1,30.30,WSW,253,1.0,3.0,49,0.00,,,0.00,Wunderground v.1.15,2013-03-04 16:34:00,
2013-03-04 11:39:00,38.6,21.1,30.30,WSW,249,1.0,4.0,49,0.00,,,0.00,Wunderground v.1.15,2013-03-04 16:39:00,
2013-03-04 11:44:00,38.8,21.3,30.29,WNW,287,0.0,3.0,49,0.00,,,0.00,Wunderground v.1.15,2013-03-04 16:44:00,
2013-03-04 11:49:00,39.3,21.7,30.29,NNW,329,2.0,4.0,49,0.00,,,0.00,Wunderground v.1.15,2013-03-04 16:49:00,
2013-03-04 11:54:00,39.7,21.6,30.29,WNW,287,1.0,3.0,48,0.00,,,0.00,Wunderground v.1.15,2013-03-04 16:54:00,
2013-03-04 11:59:00,40.0,21.4,30.29,WSW,240,1.0,6.0,47,0.00,,,0.00,Wunderground v.1.15,2013-03-04 16:59:00,
2013-03-04 12:04:00,40.4,22.2,30.29,NW,308,0.0,7.0,48,0.00,,,0.00,Wunderground v.1.15,2013-03-04 17:04:00,
2013-03-04 12:09:00,40.9,22.7,30.29,NE,37,0.0,7.0,48,0.00,,,0.00,Wunderground v.1.15,2013-03-04 17:09:00,
2013-03-04 12:14:00,41.4,22.7,30.29,ENE,74,0.0,4.0,47,0.00,,,0.00,Wunderground v.1.15,2013-03-04 17:14:00,
2013-03-04 12:19:00,41.6,22.3,30.29,NNW,344,1.0,7.0,46,0.00,,,0.00,Wunderground v.1.15,2013-03-04 17:19:00,
2013-03-04 12:24:00,41.8,22.5,30.29,NE,39,2.0,7.0,46,0.00,,,0.00,Wunderground v.1.15,2013-03-04 17:24:00,
2013-03-04 12:29:00,42.1,22.8,30.28,NNW,329,1.0,7.0,46,0.00,,,0.00,Wunderground v.1.15,2013-03-04 17:29:00,
2013-03-04 12:34:00,42.2,22.4,30.28,NNE,30,2.0,3.0,45,0.00,,,0.00,Wunderground v.1.15,2013-03-04 17:34:00,
2013-03-04 12:39:00,42.6,22.7,30.28,NNE,29,2.0,5.0,45,0.00,,,0.00,Wunderground v.1.15,2013-03-04 17:39:00,
2013-03-04 12:44:00,42.9,23.5,30.28,ENE,65,1.0,8.0,46,0.00,,,0.00,Wunderground v.1.15,2013-03-04 17:44:00,
2013-03-04 12:49:00,43.1,23.7,30.28,NNW,330,1.0,8.0,46,0.00,,,0.00,Wunderground v.1.15,2013-03-04 17:49:00,
2013-03-04 12:54:00,43.3,23.4,30.27,North,10,4.0,7.0,45,0.00,,,0.00,Wunderground v.1.15,2013-03-04 17:54:00,
2013-03-04 12:59:00,43.4,23.4,30.27,NNE,24,1.0,9.0,45,0.00,,,0.00,Wunderground v.1.15,2013-03-04 17:59:00,
2013-03-04 13:04:00,43.6,23.1,30.27,NNE,21,1.0,7.0,44,0.00,,,0.00,Wunderground v.1.15,2013-03-04 18:04:00,
2013-03-04 13:09:00,43.8,24.3,30.26,NE,47,2.0,7.0,46,0.00,,,0.00,Wunderground v.1.15,2013-03-04 18:09:00,
2013-03-04 13:14:00,44.1,23.6,30.26,NE,40,5.0,6.0,44,0.00,,,0.00,Wunderground v.1.15,2013-03-04 18:14:00,
2013-03-04 13:20:00,44.4,23.8,30.26,NNE,22,1.0,6.0,44,0.00,,,0.00,Wunderground v.1.15,2013-03-04 18:20:00,
2013-03-04 13:25:00,44.8,24.7,30.25,NE,55,1.0,3.0,45,0.00,,,0.00,Wunderground v.1.15,2013-03-04 18:25:00,
2013-03-04 13:29:00,45.2,24.0,30.25,North,5,0.0,4.0,43,0.00,,,0.00,Wunderground v.1.15,2013-03-04 18:29:00,
2013-03-04 13:30:00,45.3,24.1,30.25,NNE,26,0.0,1.0,43,0.00,,,0.00,Wunderground v.1.15,2013-03-04 18:30:00,
2013-03-04 13:35:00,45.7,25.0,30.24,North,5,4.0,6.0,44,0.00,,,0.00,Wunderground v.1.15,2013-03-04 18:35:00,
2013-03-04 13:40:00,46.0,24.2,30.24,NNW,344,2.0,2.0,42,0.00,,,0.00,Wunderground v.1.15,2013-03-04 18:40:00,
2013-03-04 13:45:00,46.1,24.8,30.23,NE,53,0.0,6.0,43,0.00,,,0.00,Wunderground v.1.15,2013-03-04 18:45:00,
2013-03-04 13:50:00,46.5,24.6,30.23,WNW,298,1.0,2.0,42,0.00,,,0.00,Wunderground v.1.15,2013-03-04 18:50:00,
2013-03-04 13:55:00,47.0,24.5,30.23,North,5,0.0,5.0,41,0.00,,,0.00,Wunderground v.1.15,2013-03-04 18:55:00,
2013-03-04 14:00:00,47.3,24.8,30.23,WSW,238,1.0,1.0,41,0.00,,,0.00,Wunderground v.1.15,2013-03-04 19:00:00,
2013-03-04 14:05:00,47.6,25.0,30.23,WSW,238,1.0,1.0,41,0.00,,,0.00,Wunderground v.1.15,2013-03-04 19:05:00,
2013-03-04 14:10:00,47.9,25.3,30.23,WSW,238,0.0,1.0,41,0.00,,,0.00,Wunderground v.1.15,2013-03-04 19:10:00,
2013-03-04 14:15:00,48.3,26.2,30.22,WSW,238,1.0,2.0,42,0.00,,,0.00,Wunderground v.1.15,2013-03-04 19:15:00,
2013-03-04 14:20:00,48.6,25.3,30.22,NNW,332,1.0,2.0,40,0.00,,,0.00,Wunderground v.1.15,2013-03-04 19:20:00,
2013-03-04 14:26:00,48.8,26.1,30.22,NNW,336,1.0,2.0,41,0.00,,,0.00,Wunderground v.1.15,2013-03-04 19:26:00,
2013-03-04 14:31:00,49.1,25.8,30.22,West,276,0.0,1.0,40,0.00,,,0.00,Wunderground v.1.15,2013-03-04 19:31:00,
2013-03-04 14:36:00,49.4,25.4,30.22,NE,42,1.0,3.0,39,0.00,,,0.00,Wunderground v.1.15,2013-03-04 19:36:00,
2013-03-04 14:41:00,49.6,25.6,30.22,NNE,19,1.0,2.0,39,0.00,,,0.00,Wunderground v.1.15,2013-03-04 19:41:00,
2013-03-04 14:46:00,49.8,26.4,30.21,North,5,0.0,2.0,40,0.00,,,0.00,Wunderground v.1.15,2013-03-04 19:46:00,
2013-03-04 14:51:00,49.9,25.9,30.21,West,273,1.0,2.0,39,0.00,,,0.00,Wunderground v.1.15,2013-03-04 19:51:00,
2013-03-04 14:56:00,50.0,26.6,30.21,West,273,0.0,2.0,40,0.00,,,0.00,Wunderground v.1.15,2013-03-04 19:56:00,
2013-03-04 15:01:00,50.2,25.5,30.21,WSW,249,0.0,1.0,38,0.00,,,0.00,Wunderground v.1.15,2013-03-04 20:01:00,
2013-03-04 15:06:00,50.4,26.3,30.21,WSW,249,0.0,2.0,39,0.00,,,0.00,Wunderground v.1.15,2013-03-04 20:06:00,
2013-03-04 15:11:00,50.5,25.8,30.21,SSE,157,2.0,2.0,38,0.00,,,0.00,Wunderground v.1.15,2013-03-04 20:11:00,
2013-03-04 15:16:00,50.5,25.8,30.21,SSE,158,2.0,6.0,38,0.00,,,0.00,Wunderground v.1.15,2013-03-04 20:16:00,
2013-03-04 15:21:00,50.4,26.3,30.20,ENE,67,2.0,2.0,39,0.00,,,0.00,Wunderground v.1.15,2013-03-04 20:21:00,
2013-03-04 15:26:00,50.6,26.5,30.21,ENE,67,1.0,2.0,39,0.00,,,0.00,Wunderground v.1.15,2013-03-04 20:26:00,
2013-03-04 15:31:00,50.8,26.7,30.20,SSE,150,0.0,1.0,39,0.00,,,0.00,Wunderground v.1.15,2013-03-04 20:31:00,
2013-03-04 15:36:00,50.8,26.7,30.20,SSE,154,0.0,4.0,39,0.00,,,0.00,Wunderground v.1.15,2013-03-04 20:36:00,
2013-03-04 15:41:00,50.8,26.7,30.20,SSE,155,1.0,1.0,39,0.00,,,0.00,Wunderground v.1.15,2013-03-04 20:41:00,
2013-03-04 15:46:00,50.7,26.6,30.20,SSE,160,0.0,4.0,39,0.00,,,0.00,Wunderground v.1.15,2013-03-04 20:46:00,
2013-03-04 15:51:00,50.6,27.1,30.20,SSE,160,0.0,0.0,40,0.00,,,0.00,Wunderground v.1.15,2013-03-04 20:51:00,
2013-03-04 15:56:00,50.4,27.0,30.20,SSE,160,0.0,1.0,40,0.00,,,0.00,Wunderground v.1.15,2013-03-04 20:56:00,
2013-03-04 16:01:00,50.4,27.6,30.20,SSE,160,0.0,1.0,41,0.00,,,0.00,Wunderground v.1.15,2013-03-04 21:01:00,
2013-03-04 16:06:00,50.3,26.9,30.20,South,175,0.0,3.0,40,0.00,,,0.00,Wunderground v.1.15,2013-03-04 21:06:00,
2013-03-04 16:11:00,50.3,27.5,30.20,South,175,0.0,1.0,41,0.00,,,0.00,Wunderground v.1.15,2013-03-04 21:11:00,
2013-03-04 16:16:00,50.3,27.5,30.20,South,175,0.0,1.0,41,0.00,,,0.00,Wunderground v.1.15,2013-03-04 21:16:00,
2013-03-04 16:21:00,50.3,26.9,30.20,South,175,0.0,0.0,40,0.00,,,0.00,Wunderground v.1.15,2013-03-04 21:21:00,
2013-03-04 16:26:00,50.4,27.0,30.20,East,80,0.0,3.0,40,0.00,,,0.00,Wunderground v.1.15,2013-03-04 21:26:00,
2013-03-04 16:31:00,50.5,27.7,30.20,East,80,2.0,2.0,41,0.00,,,0.00,Wunderground v.1.15,2013-03-04 21:31:00,
2013-03-04 16:36:00,50.7,27.2,30.20,ENE,63,0.0,2.0,40,0.00,,,0.00,Wunderground v.1.15,2013-03-04 21:36:00,
2013-03-04 16:41:00,51.0,27.5,30.20,ENE,63,0.0,1.0,40,0.00,,,0.00,Wunderground v.1.15,2013-03-04 21:41:00,
2013-03-04 16:46:00,51.1,28.2,30.19,ESE,105,1.0,2.0,41,0.00,,,0.00,Wunderground v.1.15,2013-03-04 21:46:00,
2013-03-04 16:51:00,51.2,28.3,30.20,ESE,105,0.0,1.0,41,0.00,,,0.00,Wunderground v.1.15,2013-03-04 21:51:00,
2013-03-04 16:56:00,51.2,27.7,30.20,ESE,105,1.0,2.0,40,0.00,,,0.00,Wunderground v.1.15,2013-03-04 21:56:00,
2013-03-04 17:01:00,51.3,28.4,30.20,ESE,105,0.0,1.0,41,0.00,,,0.00,Wunderground v.1.15,2013-03-04 22:01:00,
2013-03-04 17:06:00,51.2,27.7,30.20,ESE,105,0.0,1.0,40,0.00,,,0.00,Wunderground v.1.15,2013-03-04 22:06:00,
2013-03-04 17:11:00,51.2,28.3,30.21,ESE,105,0.0,2.0,41,0.00,,,0.00,Wunderground v.1.15,2013-03-04 22:11:00,
2013-03-04 17:17:00,51.1,28.2,30.20,ESE,105,0.0,2.0,41,0.00,,,0.00,Wunderground v.1.15,2013-03-04 22:17:00,
2013-03-04 17:22:00,51.0,29.3,30.20,ESE,105,0.0,0.0,43,0.00,,,0.00,Wunderground v.1.15,2013-03-04 22:22:00,
2013-03-04 17:27:00,50.7,27.8,30.20,ESE,105,0.0,1.0,41,0.00,,,0.00,Wunderground v.1.15,2013-03-04 22:27:00,
2013-03-04 17:32:00,50.5,27.7,30.20,ESE,105,0.0,0.0,41,0.00,,,0.00,Wunderground v.1.15,2013-03-04 22:32:00,
2013-03-04 17:37:00,50.3,27.5,30.20,ESE,105,0.0,0.0,41,0.00,,,0.00,Wunderground v.1.15,2013-03-04 22:37:00,
2013-03-04 17:42:00,50.1,27.9,30.20,ESE,105,0.0,2.0,42,0.00,,,0.00,Wunderground v.1.15,2013-03-04 22:42:00,
2013-03-04 17:47:00,49.8,27.6,30.20,SSE,168,0.0,4.0,42,0.00,,,0.00,Wunderground v.1.15,2013-03-04 22:47:00,
2013-03-04 17:52:00,49.6,28.0,30.20,SSE,168,0.0,0.0,43,0.00,,,0.00,Wunderground v.1.15,2013-03-04 22:52:00,
2013-03-04 17:57:00,49.4,28.4,30.20,SSE,168,0.0,0.0,44,0.00,,,0.00,Wunderground v.1.15,2013-03-04 22:57:00,
2013-03-04 18:02:00,49.2,28.7,30.21,SSE,168,0.0,1.0,45,0.00,,,0.00,Wunderground v.1.15,2013-03-04 23:02:00,
2013-03-04 18:07:00,49.0,29.1,30.20,South,171,1.0,1.0,46,0.00,,,0.00,Wunderground v.1.15,2013-03-04 23:07:00,
2013-03-04 18:12:00,48.6,29.3,30.21,South,171,0.0,1.0,47,0.00,,,0.00,Wunderground v.1.15,2013-03-04 23:12:00,
2013-03-04 18:17:00,48.3,29.0,30.20,South,171,0.0,1.0,47,0.00,,,0.00,Wunderground v.1.15,2013-03-04 23:17:00,
2013-03-04 18:22:00,48.0,28.7,30.20,South,171,0.0,1.0,47,0.00,,,0.00,Wunderground v.1.15,2013-03-04 23:22:00,
2013-03-04 18:27:00,47.8,29.0,30.21,South,171,0.0,1.0,48,0.00,,,0.00,Wunderground v.1.15,2013-03-04 23:27:00,
2013-03-04 18:32:00,47.5,28.8,30.21,South,171,0.0,0.0,48,0.00,,,0.00,Wunderground v.1.15,2013-03-04 23:32:00,
2013-03-04 18:37:00,47.3,29.1,30.22,South,171,0.0,0.0,49,0.00,,,0.00,Wunderground v.1.15,2013-03-04 23:37:00,
2013-03-04 18:42:00,47.1,28.9,30.22,South,171,0.0,1.0,49,0.00,,,0.00,Wunderground v.1.15,2013-03-04 23:42:00,
2013-03-04 18:47:00,46.8,28.6,30.21,South,171,0.0,1.0,49,0.00,,,0.00,Wunderground v.1.15,2013-03-04 23:47:00,
2013-03-04 18:52:00,46.6,28.4,30.21,South,171,0.0,0.0,49,0.00,,,0.00,Wunderground v.1.15,2013-03-04 23:52:00,
2013-03-04 18:57:00,46.4,28.3,30.22,South,171,0.0,0.0,49,0.00,,,0.00,Wunderground v.1.15,2013-03-04 23:57:00,
2013-03-04 19:02:00,46.2,28.1,30.21,South,171,0.0,0.0,49,0.00,,,0.00,Wunderground v.1.15,2013-03-05 00:02:00,
2013-03-04 19:07:00,45.9,28.8,30.21,South,171,0.0,0.0,51,0.00,,,0.00,Wunderground v.1.15,2013-03-05 00:07:00,
2013-03-04 19:12:00,45.7,28.1,30.21,South,171,0.0,0.0,50,0.00,,,0.00,Wunderground v.1.15,2013-03-05 00:12:00,
2013-03-04 19:17:00,45.4,28.3,30.21,South,171,0.0,0.0,51,0.00,,,0.00,Wunderground v.1.15,2013-03-05 00:17:00,
2013-03-04 19:22:00,45.1,28.0,30.21,South,171,0.0,0.0,51,0.00,,,0.00,Wunderground v.1.15,2013-03-05 00:22:00,
2013-03-04 19:27:00,44.8,27.8,30.22,South,171,0.0,0.0,51,0.00,,,0.00,Wunderground v.1.15,2013-03-05 00:27:00,
2013-03-04 19:32:00,44.5,28.0,30.21,South,171,0.0,0.0,52,0.00,,,0.00,Wunderground v.1.15,2013-03-05 00:32:00,
2013-03-04 19:38:00,44.2,27.7,30.21,South,171,0.0,0.0,52,0.00,,,0.00,Wunderground v.1.15,2013-03-05 00:38:00,
2013-03-04 19:43:00,43.9,27.9,30.21,South,171,0.0,0.0,53,0.00,,,0.00,Wunderground v.1.15,2013-03-05 00:43:00,
2013-03-04 19:48:00,43.6,27.6,30.21,South,171,0.0,0.0,53,0.00,,,0.00,Wunderground v.1.15,2013-03-05 00:48:00,
2013-03-04 19:53:00,43.3,27.3,30.20,South,171,0.0,1.0,53,0.00,,,0.00,Wunderground v.1.15,2013-03-05 00:53:00,
2013-03-04 19:58:00,43.0,27.5,30.21,South,171,0.0,1.0,54,0.00,,,0.00,Wunderground v.1.15,2013-03-05 00:58:00,
2013-03-04 20:03:00,42.8,27.7,30.21,South,171,1.0,1.0,55,0.00,,,0.00,Wunderground v.1.15,2013-03-05 01:03:00,
2013-03-04 20:08:00,42.6,27.5,30.21,South,171,0.0,1.0,55,0.00,,,0.00,Wunderground v.1.15,2013-03-05 01:08:00,
2013-03-04 20:13:00,42.5,27.9,30.21,South,171,0.0,1.0,56,0.00,,,0.00,Wunderground v.1.15,2013-03-05 01:13:00,
2013-03-04 20:18:00,42.4,27.8,30.20,South,171,0.0,1.0,56,0.00,,,0.00,Wunderground v.1.15,2013-03-05 01:18:00,
2013-03-04 20:23:00,42.3,28.1,30.22,South,171,0.0,0.0,57,0.00,,,0.00,Wunderground v.1.15,2013-03-05 01:23:00,
2013-03-04 20:28:00,42.0,27.9,30.21,South,171,0.0,0.0,57,0.00,,,0.00,Wunderground v.1.15,2013-03-05 01:28:00,
2013-03-04 20:33:00,41.8,27.2,30.21,South,171,0.0,0.0,56,0.00,,,0.00,Wunderground v.1.15,2013-03-05 01:33:00,
2013-03-04 20:38:00,41.6,27.5,30.22,South,171,0.0,0.0,57,0.00,,,0.00,Wunderground v.1.15,2013-03-05 01:38:00,
2013-03-04 20:43:00,41.5,27.8,30.21,South,171,0.0,0.0,58,0.00,,,0.00,Wunderground v.1.15,2013-03-05 01:43:00,
2013-03-04 20:48:00,41.4,27.7,30.21,South,171,0.0,1.0,58,0.00,,,0.00,Wunderground v.1.15,2013-03-05 01:48:00,
2013-03-04 20:53:00,41.3,27.2,30.21,South,171,0.0,0.0,57,0.00,,,0.00,Wunderground v.1.15,2013-03-05 01:53:00,
2013-03-04 20:58:00,41.1,27.4,30.21,South,171,0.0,0.0,58,0.00,,,0.00,Wunderground v.1.15,2013-03-05 01:58:00,
2013-03-04 21:03:00,41.0,27.3,30.21,South,171,0.0,0.0,58,0.00,,,0.00,Wunderground v.1.15,2013-03-05 02:03:00,
2013-03-04 21:08:00,40.9,27.7,30.21,South,171,0.0,0.0,59,0.00,,,0.00,Wunderground v.1.15,2013-03-05 02:08:00,
2013-03-04 21:13:00,40.9,27.7,30.21,South,171,0.0,0.0,59,0.00,,,0.00,Wunderground v.1.15,2013-03-05 02:13:00,
2013-03-04 21:18:00,40.9,27.7,30.21,South,171,0.0,0.0,59,0.00,,,0.00,Wunderground v.1.15,2013-03-05 02:18:00,
2013-03-04 21:23:00,40.9,27.7,30.21,South,171,0.0,0.0,59,0.00,,,0.00,Wunderground v.1.15,2013-03-05 02:23:00,
2013-03-04 21:28:00,41.0,27.8,30.21,South,171,0.0,1.0,59,0.00,,,0.00,Wunderground v.1.15,2013-03-05 02:28:00,
2013-03-04 21:33:00,41.0,28.6,30.22,South,171,0.0,0.0,61,0.00,,,0.00,Wunderground v.1.15,2013-03-05 02:33:00,
2013-03-04 21:38:00,41.0,28.2,30.22,SSE,150,0.0,0.0,60,0.00,,,0.00,Wunderground v.1.15,2013-03-05 02:38:00,
2013-03-04 21:43:00,41.1,27.9,30.22,SSE,150,0.0,1.0,59,0.00,,,0.00,Wunderground v.1.15,2013-03-05 02:43:00,
2013-03-04 21:48:00,41.4,27.7,30.22,SSE,150,0.0,1.0,58,0.00,,,0.00,Wunderground v.1.15,2013-03-05 02:48:00,
2013-03-04 21:53:00,41.6,27.9,30.22,SSE,150,0.0,1.0,58,0.00,,,0.00,Wunderground v.1.15,2013-03-05 02:53:00,
2013-03-04 21:58:00,41.7,27.6,30.22,SSE,150,1.0,2.0,57,0.00,,,0.00,Wunderground v.1.15,2013-03-05 02:58:00,
2013-03-04 22:03:00,41.8,27.7,30.22,SSE,150,0.0,1.0,57,0.00,,,0.00,Wunderground v.1.15,2013-03-05 03:03:00,
2013-03-04 22:09:00,41.9,27.8,30.22,SSE,150,0.0,1.0,57,0.00,,,0.00,Wunderground v.1.15,2013-03-05 03:09:00,
2013-03-04 22:14:00,41.8,27.7,30.22,SSE,150,0.0,1.0,57,0.00,,,0.00,Wunderground v.1.15,2013-03-05 03:14:00,
2013-03-04 22:19:00,41.6,27.9,30.22,SSE,150,0.0,2.0,58,0.00,,,0.00,Wunderground v.1.15,2013-03-05 03:19:00,
2013-03-04 22:24:00,41.3,28.0,30.22,SSE,150,0.0,1.0,59,0.00,,,0.00,Wunderground v.1.15,2013-03-05 03:24:00,
2013-03-04 22:29:00,41.1,27.9,30.22,SSE,150,0.0,1.0,59,0.00,,,0.00,Wunderground v.1.15,2013-03-05 03:29:00,
2013-03-04 22:34:00,40.9,28.5,30.22,SSE,150,0.0,0.0,61,0.00,,,0.00,Wunderground v.1.15,2013-03-05 03:34:00,
2013-03-04 22:39:00,40.5,28.5,30.22,SSE,150,0.0,0.0,62,0.00,,,0.00,Wunderground v.1.15,2013-03-05 03:39:00,
2013-03-04 22:44:00,40.3,28.3,30.21,SSE,150,0.0,0.0,62,0.00,,,0.00,Wunderground v.1.15,2013-03-05 03:44:00,
2013-03-04 22:49:00,40.0,28.4,30.22,SSE,150,0.0,0.0,63,0.00,,,0.00,Wunderground v.1.15,2013-03-05 03:49:00,
2013-03-04 22:54:00,39.8,28.2,30.21,SSE,150,0.0,0.0,63,0.00,,,0.00,Wunderground v.1.15,2013-03-05 03:54:00,
2013-03-04 22:59:00,39.6,28.8,30.21,SSE,150,0.0,1.0,65,0.00,,,0.00,Wunderground v.1.15,2013-03-05 03:59:00,
2013-03-04 23:04:00,39.4,29.0,30.21,SSE,150,1.0,1.0,66,0.00,,,0.00,Wunderground v.1.15,2013-03-05 04:04:00,
2013-03-04 23:10:00,39.1,29.1,30.21,SSE,150,0.0,1.0,67,0.00,,,0.00,Wunderground v.1.15,2013-03-05 04:10:00,
2013-03-04 23:15:00,38.9,28.9,30.21,SSE,150,0.0,1.0,67,0.00,,,0.00,Wunderground v.1.15,2013-03-05 04:15:00,
2013-03-04 23:20:00,38.6,28.9,30.20,SSE,150,0.0,1.0,68,0.00,,,0.00,Wunderground v.1.15,2013-03-05 04:20:00,
2013-03-04 23:25:00,38.5,28.9,30.20,SSE,150,0.0,1.0,68,0.00,,,0.00,Wunderground v.1.15,2013-03-05 04:25:00,
2013-03-04 23:30:00,38.4,29.1,30.20,SSE,150,0.0,1.0,69,0.00,,,0.00,Wunderground v.1.15,2013-03-05 04:30:00,
2013-03-04 23:35:00,38.2,28.9,30.20,SSE,150,0.0,1.0,69,0.00,,,0.00,Wunderground v.1.15,2013-03-05 04:35:00,
2013-03-04 23:40:00,38.1,29.2,30.20,SSE,150,0.0,1.0,70,0.00,,,0.00,Wunderground v.1.15,2013-03-05 04:40:00,
2013-03-04 23:45:00,37.9,29.0,30.20,SSE,150,0.0,0.0,70,0.00,,,0.00,Wunderground v.1.15,2013-03-05 04:45:00,
2013-03-04 23:50:00,37.8,28.9,30.20,SSE,150,0.0,0.0,70,0.00,,,0.00,Wunderground v.1.15,2013-03-05 04:50:00,
2013-03-04 23:55:00,37.7,28.8,30.20,SSE,150,0.0,1.0,70,0.00,,,0.00,Wunderground v.1.15,2013-03-05 04:55:00,